Date String (YYYY-MM-DD hh:mm:ss) UTC,Instrument flags,Ambient pressure (hPa),Sample flow (lpm),Bypass flow (lpm),Sample temperature (°C),Ambient temperature (°C),ASC tube jacket temperature (°C),LED temperature (°C),Box temperature (°C),Sample RH (%),Span deviation,Mass concentration (μg/m³),Mass concentration (μg/m³),Mass concentration (μg/m³)
DateTimeUTC,F1_M11,P_M11,Q1_M11,Q2_M11,T1_M11,T2_M11,T3_M11,T4_M11,T5_M11,U1_M11,ZSPAN_M11,X0_M11,X2_M11,X1_M11
2021-09-24 20:00:00,,0831.7,5.00,0.00,29.6,26.8,00.0,38.8,31.1,17.0,0000.0,0019.37,0005.16,0003.98
2021-09-24 20:01:00,,0831.7,5.00,0.00,29.6,27.3,00.0,38.8,31.2,17.1,0000.0,0019.94,0005.16,0004.00
2021-09-24 20:02:00,,0831.7,5.00,0.00,29.6,27.7,00.0,38.8,31.3,17.3,0000.0,0019.77,0005.14,0004.00
2021-09-24 20:03:00,,0831.7,5.00,0.00,29.7,28.0,00.0,38.8,31.4,17.2,0000.0,0019.96,0005.18,0004.00
2021-09-24 20:04:00,,0831.7,5.01,0.00,29.7,28.3,00.0,38.8,31.5,17.0,0000.0,0020.28,0005.17,0004.01
2021-09-24 20:05:00,,0831.7,4.99,0.00,29.7,28.5,00.0,38.8,31.6,16.9,0000.0,0021.06,0005.17,0004.03
2021-09-24 20:06:00,,0831.7,5.02,0.00,29.8,28.7,00.0,38.8,31.6,16.9,0000.0,0021.94,0005.22,0004.05
2021-09-24 20:07:00,,0831.7,4.98,0.00,29.8,28.9,00.0,38.8,31.7,16.9,0000.0,0021.74,0005.28,0004.06
2021-09-24 20:08:00,,0831.7,5.00,0.00,29.9,29.0,00.0,38.9,31.7,17.0,0000.0,0021.66,0005.28,0004.06
2021-09-24 20:09:00,,0831.7,5.00,0.00,29.9,29.1,00.0,38.9,31.8,16.9,0000.0,0021.91,0005.31,0004.06
2021-09-24 20:10:00,,0831.7,5.01,0.00,30.0,29.2,00.0,38.9,31.9,16.9,0000.0,0020.42,0005.27,0004.06
2021-09-24 20:11:00,,0831.7,4.98,0.00,30.0,29.3,00.0,38.9,31.9,16.9,0000.0,0018.65,0005.22,0004.05
2021-09-24 20:12:00,,0831.7,5.00,0.00,30.0,29.0,00.0,39.0,31.9,16.8,0000.0,0018.01,0005.23,0004.06
2021-09-24 20:13:00,,0831.6,5.00,0.00,29.9,26.9,00.0,38.9,31.3,16.9,0000.0,0018.39,0005.22,0004.07
2021-09-24 20:14:00,,0831.6,4.99,0.00,29.7,25.8,00.0,38.9,31.0,17.0,0000.0,0018.88,0005.20,0004.10
2021-09-24 20:15:00,,0831.5,5.00,0.00,29.7,26.0,00.0,38.9,31.0,17.2,0000.0,0018.49,0005.23,0004.12
2021-09-24 20:16:00,,0831.5,5.00,0.00,29.6,26.5,00.0,38.8,31.1,17.3,0000.0,0017.76,0005.30,0004.12
2021-09-24 20:17:00,,0831.5,5.01,0.00,29.6,27.0,00.0,38.8,31.2,17.2,0000.0,0017.09,0005.31,0004.11
2021-09-24 20:18:00,,0831.5,4.99,0.00,29.6,27.4,00.0,38.8,31.2,17.2,0000.0,0018.07,0005.34,0004.12
2021-09-24 20:19:00,,0831.6,5.01,0.00,29.6,27.8,00.0,38.7,31.3,17.2,0000.0,0018.52,0005.37,0004.13
2021-09-24 20:20:00,,0831.5,4.99,0.00,29.6,28.1,00.0,38.7,31.4,17.2,0000.0,0018.04,0005.39,0004.14
2021-09-24 20:21:00,,0831.5,5.00,0.00,29.7,28.4,00.0,38.7,31.5,17.3,0000.0,0018.29,0005.42,0004.15
2021-09-24 20:22:00,,0831.5,5.01,0.00,29.7,28.6,00.0,38.8,31.6,17.3,0000.0,0018.59,0005.44,0004.16
2021-09-24 20:23:00,,0831.5,4.99,0.00,29.8,28.8,00.0,38.8,31.6,17.3,0000.0,0018.52,0005.50,0004.16
2021-09-24 20:24:00,,0831.5,4.99,0.00,29.8,28.9,00.0,38.8,31.7,17.1,0000.0,0017.99,0005.59,0004.18
2021-09-24 20:25:00,,0831.5,5.01,0.00,29.9,29.0,00.0,38.8,31.7,16.9,0000.0,0018.19,0005.62,0004.19
2021-09-24 20:26:00,,0831.5,5.00,0.00,29.9,29.2,00.0,38.8,31.8,17.0,0000.0,0018.41,0005.67,0004.19
2021-09-24 20:27:00,,0831.4,5.01,0.00,29.9,28.8,00.0,38.9,31.7,17.1,0000.0,0018.33,0005.66,0004.19
2021-09-24 20:28:00,,0831.4,5.00,0.00,29.8,26.7,00.0,38.9,31.3,17.2,0000.0,0017.81,0005.62,0004.20
2021-09-24 20:29:00,,0831.4,5.00,0.00,29.7,25.7,00.0,38.8,31.0,17.3,0000.0,0016.92,0005.58,0004.22
2021-09-24 20:30:00,,0831.3,5.00,0.00,29.6,26.0,00.0,38.8,31.0,17.4,0000.0,0016.72,0005.60,0004.22
2021-09-24 20:31:00,,0831.3,5.00,0.00,29.5,26.5,00.0,38.7,31.0,17.4,0000.0,0016.23,0005.61,0004.23
2021-09-24 20:32:00,,0831.3,5.00,0.00,29.5,27.0,00.0,38.7,31.1,17.4,0000.0,0016.38,0005.64,0004.25
2021-09-24 20:33:00,,0831.3,5.01,0.00,29.5,27.4,00.0,38.7,31.2,17.4,0000.0,0016.70,0005.74,0004.27
2021-09-24 20:34:00,,0831.2,4.99,0.00,29.5,27.8,00.0,38.7,31.3,17.4,0000.0,0016.74,0005.75,0004.28
2021-09-24 20:35:00,,0831.2,5.02,0.00,29.6,28.1,00.0,38.7,31.4,17.4,0000.0,0017.25,0005.76,0004.28
2021-09-24 20:36:00,,0831.2,4.99,0.00,29.6,28.3,00.0,38.7,31.4,17.4,0000.0,0018.39,0005.78,0004.27
2021-09-24 20:37:00,,0831.2,5.01,0.00,29.7,28.5,00.0,38.7,31.5,17.1,0000.0,0018.45,0005.81,0004.28
2021-09-24 20:38:00,,0831.2,5.00,0.00,29.7,28.7,00.0,38.7,31.6,17.0,0000.0,0018.40,0005.87,0004.29
2021-09-24 20:39:00,,0831.2,4.98,0.00,29.7,28.8,00.0,38.7,31.6,17.2,0000.0,0019.04,0005.88,0004.30
2021-09-24 20:40:00,,0831.2,4.99,0.00,29.8,29.0,00.0,38.8,31.7,16.9,0000.0,0019.80,0005.97,0004.33
2021-09-24 20:41:00,,0831.2,5.00,0.00,29.8,29.1,00.0,38.8,31.8,16.8,0000.0,0019.72,0006.00,0004.36
2021-09-24 20:42:00,,0831.2,4.99,0.00,29.9,29.2,00.0,38.8,31.8,16.8,0000.0,0020.02,0006.06,0004.38
2021-09-24 20:43:00,,0831.2,5.01,0.00,29.9,28.8,00.0,38.8,31.7,16.8,0000.0,0019.63,0006.03,0004.39
2021-09-24 20:44:00,,0831.2,5.00,0.00,29.8,26.9,00.0,38.8,31.2,16.9,0000.0,0020.09,0006.03,0004.39
2021-09-24 20:45:00,,0831.2,5.01,0.00,29.7,26.7,00.0,38.8,31.1,17.0,0000.0,0020.36,0006.11,0004.43
2021-09-24 20:46:00,,0831.2,5.00,0.00,29.7,27.0,00.0,38.8,31.2,17.2,0000.0,0019.36,0006.05,0004.45
2021-09-24 20:47:00,,0831.2,4.99,0.00,29.6,27.4,00.0,38.8,31.3,17.2,0000.0,0017.88,0006.05,0004.46
2021-09-24 20:48:00,,0831.2,4.99,0.00,29.7,27.8,00.0,38.8,31.4,17.2,0000.0,0018.61,0006.05,0004.48
2021-09-24 20:49:00,,0831.2,4.99,0.00,29.7,28.1,00.0,38.8,31.5,17.0,0000.0,0018.79,0006.04,0004.49
2021-09-24 20:50:00,,0831.2,5.01,0.00,29.7,28.3,00.0,38.8,31.5,17.0,0000.0,0019.29,0006.07,0004.53
2021-09-24 20:51:00,,0831.1,5.00,0.00,29.8,28.6,00.0,38.8,31.6,17.0,0000.0,0019.92,0006.07,0004.53
2021-09-24 20:52:00,,0831.2,5.01,0.00,29.8,28.8,00.0,38.8,31.7,17.0,0000.0,0019.40,0006.07,0004.53
2021-09-24 20:53:00,,0831.2,4.99,0.00,29.9,28.9,00.0,38.8,31.8,16.9,0000.0,0019.32,0006.04,0004.54
2021-09-24 20:54:00,,0831.2,4.99,0.00,29.9,29.1,00.0,38.8,31.8,17.0,0000.0,0020.72,0006.10,0004.55
2021-09-24 20:55:00,,0831.2,5.00,0.00,30.0,29.2,00.0,38.9,31.9,17.0,0000.0,0021.04,0006.12,0004.58
2021-09-24 20:56:00,,0831.2,5.01,0.00,30.0,28.5,00.0,38.9,31.7,16.9,0000.0,0021.22,0006.11,0004.58
2021-09-24 20:57:00,,0831.2,4.99,0.00,29.8,26.4,00.0,38.9,31.0,17.1,0000.0,0021.24,0006.16,0004.59
2021-09-24 20:58:00,,0831.2,5.00,0.00,29.6,25.8,00.0,38.8,30.8,17.2,0000.0,0021.20,0006.16,0004.60
2021-09-24 20:59:00,,0831.1,5.00,0.00,29.5,26.2,00.0,38.8,31.0,17.2,0000.0,0020.29,0006.14,0004.62
